Stündliche Wetter Aaruti

Heute, 8 März, Montag

Zeit Temperatur Niederschläge Wind Luftdruck Luftfeuchtigkeit
00:00 +2°C° 0 mm 0 m/S 719 mmHg 91%
01:00 +2°C° 0 mm 0 m/S 719 mmHg 93%
02:00 +2°C° 0 mm 0 m/S 719 mmHg 93%
03:00 +1°C° 0 mm 0 m/S 719 mmHg 92%
04:00 +1°C° 0 mm 0 m/S 719 mmHg 92%
05:00 +1°C° 0 mm 0 m/S 719 mmHg 92%
06:00 +2°C° 0 mm 1 m/S 719 mmHg 91%
07:00 +2°C° 0 mm 1 m/S 719 mmHg 91%
08:00 +3°C° 0 mm 1 m/S 719 mmHg 86%
09:00 +4°C° 0 mm 1 m/S 719 mmHg 81%
10:00 +5°C° 0 mm 1 m/S 719 mmHg 76%
11:00 +6°C° 0 mm 1 m/S 719 mmHg 71%
12:00 +7°C° 0 mm 1 m/S 719 mmHg 66%
13:00 +8°C° 0 mm 1 m/S 719 mmHg 61%
14:00 +8°C° 0 mm 1 m/S 719 mmHg 60%
15:00 +8°C° 0 mm 1 m/S 718 mmHg 58%
16:00 +8°C° 0 mm 1 m/S 718 mmHg 57%
17:00 +7°C° 0 mm 1 m/S 718 mmHg 64%
18:00 +5°C° 0 mm 1 m/S 718 mmHg 70%
19:00 +4°C° 0 mm 1 m/S 718 mmHg 77%
20:00 +3°C° 0 mm 1 m/S 718 mmHg 78%
21:00 +2°C° 0 mm 1 m/S 718 mmHg 80%
22:00 +1°C° 0 mm 1 m/S 719 mmHg 82%
23:00 +1°C° 0 mm 1 m/S 719 mmHg 82%

Morgen, 9 März, Dienstag

Zeit Temperatur Niederschläge Wind Luftdruck Luftfeuchtigkeit
00:00 0°C° 0 mm 1 m/S 718 mmHg 83%
01:00 0°C° 0 mm 1 m/S 718 mmHg 83%
02:00 -1°C° 0 mm 1 m/S 718 mmHg 83%
03:00 -1°C° 0 mm 1 m/S 718 mmHg 83%
04:00 -2°C° 0 mm 0 m/S 717 mmHg 83%
05:00 -2°C° 0 mm 0 m/S 718 mmHg 83%
06:00 -2°C° 0 mm 0 m/S 718 mmHg 82%
07:00 -2°C° 0 mm 0 m/S 718 mmHg 81%
08:00 0°C° 0 mm 0 m/S 718 mmHg 73%
09:00 +2°C° 0 mm 0 m/S 718 mmHg 66%
10:00 +4°C° 0 mm 0 m/S 719 mmHg 58%
11:00 +6°C° 0 mm 0 m/S 719 mmHg 54%
12:00 +7°C° 0 mm 0 m/S 719 mmHg 50%
13:00 +8°C° 0 mm 0 m/S 719 mmHg 46%
14:00 +9°C° 0 mm 1 m/S 719 mmHg 47%
15:00 +9°C° 0 mm 1 m/S 718 mmHg 48%
16:00 +8°C° 0 mm 1 m/S 718 mmHg 48%
17:00 +7°C° 0 mm 1 m/S 718 mmHg 56%
18:00 +5°C° 0 mm 1 m/S 719 mmHg 64%
19:00 +3°C° 0 mm 1 m/S 719 mmHg 71%
20:00 +2°C° 0 mm 1 m/S 719 mmHg 74%
21:00 +2°C° 0 mm 1 m/S 720 mmHg 77%
22:00 +1°C° 0 mm 1 m/S 720 mmHg 79%
23:00 0°C° 0 mm 0 m/S 720 mmHg 81%

übermorgen, 10 März, Mittwoch

Zeit Temperatur Niederschläge Wind Luftdruck Luftfeuchtigkeit
00:00 0°C° 0 mm 0 m/S 720 mmHg 83%
01:00 -1°C° 0 mm 0 m/S 720 mmHg 85%
02:00 -1°C° 0 mm 0 m/S 720 mmHg 86%
03:00 -1°C° 0 mm 0 m/S 720 mmHg 87%
04:00 -1°C° 0 mm 0 m/S 720 mmHg 88%
05:00 -2°C° 0 mm 0 m/S 721 mmHg 88%
06:00 -2°C° 0 mm 0 m/S 721 mmHg 88%
07:00 -2°C° 0 mm 0 m/S 721 mmHg 88%
08:00 +1°C° 0 mm 0 m/S 721 mmHg 78%
09:00 +3°C° 0 mm 0 m/S 722 mmHg 67%
10:00 +6°C° 0 mm 0 m/S 722 mmHg 57%
11:00 +7°C° 0 mm 0 m/S 722 mmHg 53%
12:00 +9°C° 0 mm 0 m/S 722 mmHg 49%
13:00 +10°C° 0 mm 0 m/S 721 mmHg 45%
14:00 +11°C° 0 mm 1 m/S 721 mmHg 45%
15:00 +11°C° 0 mm 1 m/S 720 mmHg 45%
16:00 +10°C° 0 mm 1 m/S 720 mmHg 45%
17:00 +8°C° 0 mm 1 m/S 720 mmHg 51%
18:00 +5°C° 0 mm 0 m/S 720 mmHg 58%
19:00 +3°C° 0 mm 0 m/S 720 mmHg 65%
20:00 +3°C° 0 mm 0 m/S 720 mmHg 66%
21:00 +3°C° 0 mm 0 m/S 720 mmHg 68%
22:00 +3°C° 0 mm 1 m/S 720 mmHg 69%
23:00 +3°C° 0 mm 1 m/S 720 mmHg 69%

11 März, Donnerstag

Zeit Temperatur Niederschläge Wind Luftdruck Luftfeuchtigkeit
00:00 +3°C° 0 mm 1 m/S 719 mmHg 69%
01:00 +3°C° 0 mm 1 m/S 719 mmHg 69%
02:00 +4°C° 0 mm 1 m/S 719 mmHg 67%
03:00 +4°C° 0 mm 1 m/S 718 mmHg 66%
04:00 +4°C° 0 mm 1 m/S 718 mmHg 65%
05:00 +5°C° 0 mm 1 m/S 718 mmHg 64%
06:00 +4°C° 0 mm 2 m/S 718 mmHg 64%
07:00 +4°C° 0 mm 2 m/S 718 mmHg 64%
08:00 +5°C° 0 mm 2 m/S 717 mmHg 63%
09:00 +6°C° 0 mm 2 m/S 717 mmHg 62%
10:00 +7°C° 0 mm 3 m/S 717 mmHg 61%
11:00 +8°C° 0 mm 4 m/S 717 mmHg 58%
12:00 +10°C° 0 mm 5 m/S 717 mmHg 56%
13:00 +13°C° 0 mm 6 m/S 716 mmHg 53%
14:00 +12°C° 0.1 mm 7 m/S 716 mmHg 55%
15:00 +12°C° 0.1 mm 7 m/S 716 mmHg 57%
16:00 +12°C° 0.1 mm 7 m/S 715 mmHg 59%
17:00 +11°C° 0.6 mm 6 m/S 715 mmHg 67%
18:00 +10°C° 0.6 mm 6 m/S 715 mmHg 74%
19:00 +9°C° 0.6 mm 5 m/S 716 mmHg 82%
20:00 +8°C° 1.4 mm 6 m/S 716 mmHg 83%
21:00 +7°C° 1.4 mm 6 m/S 716 mmHg 85%
22:00 +6°C° 1.4 mm 7 m/S 717 mmHg 87%
23:00 +5°C° 0.9 mm 6 m/S 717 mmHg 88%

12 März, Freitag

Zeit Temperatur Niederschläge Wind Luftdruck Luftfeuchtigkeit
00:00 +6°C° 0.9 mm 5 m/S 718 mmHg 88%
01:00 +5°C° 0.9 mm 5 m/S 718 mmHg 88%
02:00 +5°C° 0.2 mm 4 m/S 718 mmHg 89%
03:00 +5°C° 0.2 mm 4 m/S 718 mmHg 90%
04:00 +4°C° 0.2 mm 3 m/S 718 mmHg 91%
05:00 +4°C° 0.1 mm 3 m/S 718 mmHg 91%
06:00 +4°C° 0.1 mm 3 m/S 718 mmHg 91%
07:00 +3°C° 0.1 mm 3 m/S 718 mmHg 91%
08:00 +4°C° 0.2 mm 3 m/S 718 mmHg 87%
09:00 +5°C° 0.2 mm 4 m/S 718 mmHg 83%
10:00 +5°C° 0.2 mm 5 m/S 718 mmHg 79%
11:00 +6°C° 0.1 mm 5 m/S 718 mmHg 74%
12:00 +7°C° 0.1 mm 5 m/S 718 mmHg 68%
13:00 +8°C° 0.1 mm 4 m/S 718 mmHg 63%
14:00 +8°C° 0.1 mm 4 m/S 717 mmHg 63%
15:00 +8°C° 0.1 mm 4 m/S 717 mmHg 63%
16:00 +8°C° 0.1 mm 4 m/S 716 mmHg 63%
17:00 +8°C° 0.2 mm 3 m/S 716 mmHg 70%
18:00 +5°C° 0.2 mm 3 m/S 716 mmHg 77%
19:00 +5°C° 0.2 mm 2 m/S 716 mmHg 84%
20:00 +4°C° 0 mm 2 m/S 716 mmHg 85%
21:00 +4°C° 0 mm 2 m/S 716 mmHg 86%
22:00 +3°C° 0 mm 2 m/S 717 mmHg 87%
23:00 +3°C° 0.4 mm 2 m/S 716 mmHg 89%

13 März, Samstag

Zeit Temperatur Niederschläge Wind Luftdruck Luftfeuchtigkeit
00:00 +2°C° 0.4 mm 3 m/S 716 mmHg 91%
01:00 +3°C° 0.4 mm 4 m/S 716 mmHg 93%
02:00 +3°C° 0.5 mm 4 m/S 716 mmHg 93%
03:00 +3°C° 0.5 mm 4 m/S 716 mmHg 92%
04:00 +3°C° 0.5 mm 4 m/S 716 mmHg 91%
05:00 +1°C° 0.9 mm 5 m/S 716 mmHg 92%
06:00 +1°C° 0.9 mm 5 m/S 716 mmHg 93%
07:00 +1°C° 0.9 mm 5 m/S 717 mmHg 94%
08:00 +2°C° 0.7 mm 5 m/S 717 mmHg 93%
09:00 +2°C° 0.7 mm 5 m/S 717 mmHg 92%
10:00 +3°C° 0.7 mm 4 m/S 717 mmHg 90%
11:00 +3°C° 0.2 mm 5 m/S 717 mmHg 89%
12:00 +3°C° 0.2 mm 5 m/S 718 mmHg 87%
13:00 +4°C° 0.2 mm 6 m/S 718 mmHg 85%
14:00 +4°C° 0.2 mm 6 m/S 718 mmHg 84%
15:00 +4°C° 0.2 mm 6 m/S 718 mmHg 83%
16:00 +5°C° 0.2 mm 6 m/S 718 mmHg 81%
17:00 +5°C° 0.4 mm 5 m/S 718 mmHg 85%
18:00 +5°C° 0.4 mm 5 m/S 718 mmHg 88%
19:00 +3°C° 0.4 mm 5 m/S 718 mmHg 92%
20:00 +3°C° 0.8 mm 5 m/S 719 mmHg 92%
21:00 +3°C° 0.8 mm 5 m/S 719 mmHg 93%
22:00 +3°C° 0.8 mm 5 m/S 719 mmHg 94%
23:00 +3°C° 0.6 mm 5 m/S 719 mmHg 93%
Mehr zeigen

Wir brauchen deine Erlaubnis

Meteoprog und unser Service Anbieter werden persönliche Daten aufbewahren, so wie Cookies, Geräte Bezeichnung oder ähnliche Technologien von deinem Gerät und Prozess, so wie Persönliche Daten Inhalte und Werbungen, genauso wie social Media und den Verkehr zu analysieren.

  • Aufbewahrung und/oder Zugang zu deiner Geräte Informationen.

    Cookies, Geräte Bezeichnung oder andere Informationen, können aufbewahrt oder Zugang zu deinem Gerät erhalten, für den Grund, der oben angegeben wird.

  • Personalisierte Werbung und Inhalte, Messungen, Einblick in das Publikum und Produkt Entwicklung.

    Werbungen und Inhalte können personalisiert werden, basierend auf ein Profil. Mehr Daten können besser personalisierte Werbungen und Inhalte hinzufügen. Werbung und Inhalte können gezeigt und gemessen werden. Einblicke über das Publikum, welche die Werbung gesehen haben und den Inhalt, können abgeleitet werden. So wie Daten können genutzt werden, um es zu verbessern oder die Benutzer Erfahrung zu verbessern das System und die Software.

Wenn du “Ich stimme zu” klickst, erlaubst du uns, die Cookies zu benutzen die Geräte Bezeichnung, den Web oder ähnliche Technologien zu benutzen. Deine Settings, können in deinem Gerät bei deinem Browser geändert werden.

Für den bestimmten Zweck, berechtigten Interessen beruhen darauf, mehr als auf den Inhalt. Du kannst mehr darüber in unseren Privaten und Cookie Politik lesen.